Home > Weather > Nadiad > Past weeks

Flag for India Past Weather in Nadiad, Gujarat, India — Yesterday and Last 2 Weeks

Now
88 °F

Partly sunny.


Feels Like: 100 °F
Forecast: 78 / 91 °F
Wind: 6 mph from West

Location: Ahmadabad Airport

Current Time: Jul 25, 2016 at 7:39:24 PM

Latest Report: Jul 25, 2016 at 7:00 PM


Visibility: 3 mi

Pressure: 29.59 "Hg

Humidity: 70%

Dew Point: 77 °F

Location of NadiadLocation

Past Weather in Nadiad — Graph

°F

Nadiad Temperature Yesterday

Maximum temperature yesterday: 95 °F (at 3:00 PM)
Minimum temperature yesterday: 82 °F (at 5:30 AM)
Average temperature yesterday: 88 °F

High & Low Weather Summary for the Past Weeks

 TemperatureHumidityPressure
High95 °F (Jul 11, 4:00 PM)100% (Jul 13, 1:00 AM)29.74 "Hg (Jul 13, 1:00 AM)
Low79 °F (Jul 12, 10:30 PM)47% (Jul 22, 5:30 PM)29.45 "Hg (Jul 10, 6:30 PM)
Average85 °F77%29.60 "Hg
* Reported Jul 10 6:30 PM — Jul 25 6:30 PM, Nadiad, Weather by CustomWeather, © 2016

Note: Actual official high and low records may vary slightly from our data, if they occured in-between our weather recording intervals... More about our weather records

Advertising

Nadiad Weather History for the Previous 24 Hours

Scroll right to see more
 ConditionsComfort  
Time TempWeatherWind HumidityBarometerVisibility
6:30 PM
Mon, Jul 25
88 °FScattered clouds.8 mph70%29.59 "Hg3 mi
6:00 PM88 °FScattered clouds.7 mph75%29.56 "Hg3 mi
5:30 PM88 °FBroken clouds.9 mph70%29.56 "Hg3 mi
5:00 PM88 °FBroken clouds.3 mph70%29.56 "Hg3 mi
4:30 PM90 °FBroken clouds.3 mph67%29.56 "Hg3 mi
4:00 PM90 °FBroken clouds.2 mph67%29.59 "Hg3 mi
3:30 PM90 °FBroken clouds.No wind67%29.59 "Hg3 mi
3:00 PM88 °FBroken clouds.3 mph70%29.59 "Hg3 mi
2:30 PM88 °FBroken clouds.5 mph75%29.62 "Hg3 mi
2:00 PM88 °FPartly sunny.5 mph70%29.62 "Hg3 mi
1:30 PM88 °FPartly sunny.5 mph75%29.62 "Hg3 mi
1:00 PM88 °FPartly sunny.3 mph75%29.65 "Hg3 mi
12:30 PM88 °FPartly sunny.3 mph75%29.65 "Hg3 mi
12:00 PM88 °FPartly sunny.3 mph75%29.65 "Hg3 mi
11:30 AM86 °FPartly sunny.6 mph79%29.65 "Hg2 mi
11:00 AM86 °FPartly sunny.6 mph79%29.65 "Hg2 mi
10:30 AM86 °FPartly sunny.6 mph79%29.65 "Hg2 mi
10:00 AM86 °FPartly sunny.5 mph75%29.65 "Hg2 mi
9:30 AM86 °FPartly sunny.5 mph75%29.65 "Hg2 mi
9:00 AM84 °FPartly sunny.6 mph79%29.65 "Hg2 mi
8:30 AM84 °FPartly sunny.7 mph79%29.65 "Hg2 mi
8:00 AM84 °FPartly sunny.5 mph79%29.62 "Hg2 mi
7:30 AM84 °FPartly sunny.3 mph84%29.62 "Hg2 mi
7:00 AM82 °FFog.5 mph89%29.62 "Hg2 mi
6:30 AM82 °FFog.3 mph89%29.62 "Hg2 mi
6:00 AM82 °FFog.3 mph89%29.59 "Hg2 mi
5:30 AM82 °FPartly cloudy.3 mph84%29.59 "Hg2 mi
5:00 AM82 °FPartly cloudy.3 mph84%29.59 "Hg2 mi
4:30 AM82 °FLight rain. Passing clouds.3 mph89%29.59 "Hg2 mi
4:00 AM82 °FLight rain. Passing clouds.3 mph89%29.59 "Hg2 mi
3:30 AM82 °FLight rain. Passing clouds.3 mph89%29.59 "Hg2 mi
3:00 AM84 °FLight rain. Passing clouds.3 mph84%29.59 "Hg2 mi
2:30 AM86 °FHaze.No wind75%29.62 "Hg2 mi
2:00 AM86 °FHaze.5 mph70%29.59 "Hg2 mi
1:30 AM84 °FPassing clouds.5 mph74%29.62 "Hg2 mi
1:00 AM84 °FPassing clouds.8 mph74%29.62 "Hg2 mi
12:30 AM86 °FPassing clouds.8 mph70%29.62 "Hg2 mi
12:00 AM88 °FPassing clouds.6 mph66%29.65 "Hg2 mi
11:30 PM
Sun, Jul 24
88 °FPassing clouds.7 mph70%29.65 "Hg2 mi
11:00 PM88 °FPassing clouds.3 mph70%29.62 "Hg2 mi
10:30 PM88 °FPassing clouds.2 mph70%29.62 "Hg2 mi
10:00 PM88 °FPassing clouds.3 mph66%29.62 "Hg2 mi
9:30 PM88 °FPassing clouds.5 mph70%29.62 "Hg2 mi
9:00 PM88 °FPassing clouds.6 mph70%29.59 "Hg2 mi
8:30 PM88 °FPassing clouds.5 mph70%29.59 "Hg2 mi
8:00 PM88 °FPassing clouds.5 mph70%29.59 "Hg2 mi
7:30 PM90 °FScattered clouds.5 mph67%29.56 "Hg2 mi
7:00 PM91 °FScattered clouds.3 mph63%29.56 "Hg2 mi
Weather by CustomWeather, © 2016

See weather overviewHow to use our weather pages